Tracking 33190 objects as of 9-Feb-2026
HD Live streaming from Space Station
objects crossing your sky now

STARLINK-5382

Track STARLINK-5382 now!
10-day predictions
STARLINK-5382 is classified as:


NORAD ID: 54820
Int'l Code: 2022-177A
Perigee: 565.4 km
Apogee: 567.0 km
Inclination: 43.0 °
Period: 95.8 minutes
Semi major axis: 6937 km
RCS: Unknown
Launch date: December 28, 2022
Source: United States (US)
Launch site: AIR FORCE EASTERN TEST RANGE (AFETR)
Your satellite tracking list
Your tracking list is empty




NASA's NSSDC Master Catalog

Two Line Element Set (TLE):
1 54820U 22177A   26040.04769318 -.00000291  00000-0 -64904-5 0  9990
2 54820  43.0039 289.2418 0001154 266.7022  93.3688 15.02526466172644
Source of the keplerian elements: AFSPC